TimeCST,TemperatureF,Dew PointF,Humidity,Sea Level PressureIn,VisibilityMPH,Wind Direction,Wind SpeedMPH,Gust SpeedMPH,PrecipitationIn,Events,Conditions,WindDirDegrees,DateUTC
12:15 AM,19.8,15.8,85,30.37,10.0,West,4.6,-,N/A,,Mostly Cloudy,260,2013-01-21 06:15:00
12:35 AM,21.0,16.7,83,30.36,10.0,West,5.8,-,N/A,,Overcast,270,2013-01-21 06:35:00
12:55 AM,21.7,16.7,81,30.35,10.0,West,4.6,-,N/A,,Overcast,260,2013-01-21 06:55:00
1:15 AM,22.1,17.1,81,30.34,10.0,WSW,3.5,-,N/A,,Overcast,250,2013-01-21 07:15:00
1:35 AM,22.1,16.9,80,30.33,10.0,SW,4.6,-,N/A,,Overcast,230,2013-01-21 07:35:00
1:55 AM,21.0,15.8,80,30.33,10.0,WSW,3.5,-,N/A,,Mostly Cloudy,240,2013-01-21 07:55:00
2:15 AM,20.1,15.1,81,30.34,10.0,West,5.8,-,N/A,,Scattered Clouds,270,2013-01-21 08:15:00
2:35 AM,20.1,14.9,80,30.33,10.0,West,4.6,-,N/A,,Clear,270,2013-01-21 08:35:00
2:55 AM,19.4,15.4,85,30.32,10.0,West,3.5,-,N/A,,Mostly Cloudy,270,2013-01-21 08:55:00
3:15 AM,19.6,14.9,82,30.32,10.0,West,3.5,-,N/A,,Mostly Cloudy,280,2013-01-21 09:15:00
3:35 AM,19.0,14.4,82,30.32,10.0,NW,3.5,-,N/A,,Scattered Clouds,320,2013-01-21 09:35:00
3:55 AM,18.5,14.7,85,30.31,10.0,West,4.6,-,N/A,,Clear,260,2013-01-21 09:55:00
4:15 AM,17.6,13.6,84,30.31,10.0,WNW,4.6,-,N/A,,Clear,300,2013-01-21 10:15:00
4:35 AM,18.3,14.4,85,30.30,10.0,WNW,5.8,-,N/A,,Clear,300,2013-01-21 10:35:00
4:55 AM,18.0,13.6,83,30.31,10.0,Calm,Calm,-,N/A,,Clear,0,2013-01-21 10:55:00
5:15 AM,18.3,14.5,85,30.31,10.0,NNW,3.5,-,N/A,,Mostly Cloudy,330,2013-01-21 11:15:00
5:35 AM,19.4,15.6,85,30.31,10.0,NW,3.5,-,N/A,,Overcast,320,2013-01-21 11:35:00
5:55 AM,20.3,16.3,85,30.30,10.0,Calm,Calm,-,N/A,,Overcast,0,2013-01-21 11:55:00
6:15 AM,21.2,16.7,83,30.30,10.0,Calm,Calm,-,N/A,,Overcast,0,2013-01-21 12:15:00
6:35 AM,21.9,17.2,82,30.31,10.0,Calm,Calm,-,N/A,,Overcast,0,2013-01-21 12:35:00
6:55 AM,21.9,17.4,83,30.30,10.0,Calm,Calm,-,N/A,,Overcast,0,2013-01-21 12:55:00
7:15 AM,22.1,17.6,83,30.30,10.0,Calm,Calm,-,N/A,,Overcast,0,2013-01-21 13:15:00
7:35 AM,21.9,17.6,83,30.30,10.0,Calm,Calm,-,N/A,,Overcast,0,2013-01-21 13:35:00
7:55 AM,22.1,18.0,84,30.29,10.0,Calm,Calm,-,N/A,,Overcast,0,2013-01-21 13:55:00
8:15 AM,22.1,17.6,83,30.28,10.0,South,4.6,-,N/A,,Overcast,190,2013-01-21 14:15:00
8:35 AM,22.1,17.6,83,30.29,10.0,Calm,Calm,-,N/A,,Overcast,0,2013-01-21 14:35:00
8:55 AM,22.8,18.0,82,30.29,10.0,ESE,3.5,-,N/A,,Overcast,120,2013-01-21 14:55:00
9:15 AM,23.4,18.9,83,30.30,10.0,ENE,8.1,-,N/A,,Overcast,70,2013-01-21 15:15:00
9:35 AM,21.4,17.4,85,30.31,10.0,East,12.7,-,N/A,,Overcast,80,2013-01-21 15:35:00
9:55 AM,21.0,16.9,84,30.30,10.0,East,11.5,-,N/A,,Overcast,90,2013-01-21 15:55:00
10:15 AM,21.0,16.9,84,30.31,10.0,East,11.5,-,N/A,,Overcast,80,2013-01-21 16:15:00
10:35 AM,21.2,17.1,84,30.32,10.0,East,11.5,-,N/A,,Overcast,90,2013-01-21 16:35:00
10:55 AM,21.2,17.1,84,30.30,10.0,ESE,12.7,-,N/A,,Overcast,110,2013-01-21 16:55:00
11:15 AM,21.7,17.6,84,30.31,10.0,East,10.4,-,N/A,,Overcast,100,2013-01-21 17:15:00
11:35 AM,21.6,17.6,85,30.31,10.0,East,12.7,-,N/A,,Overcast,80,2013-01-21 17:35:00
11:55 AM,21.4,17.1,83,30.29,10.0,East,12.7,16.1,N/A,,Overcast,100,2013-01-21 17:55:00
12:15 PM,21.2,16.7,83,30.29,10.0,East,12.7,-,N/A,,Overcast,80,2013-01-21 18:15:00
12:35 PM,21.7,16.7,81,30.29,10.0,East,12.7,-,N/A,,Overcast,100,2013-01-21 18:35:00
12:55 PM,22.1,16.7,80,30.27,10.0,ESE,10.4,-,N/A,,Overcast,120,2013-01-21 18:55:00
1:15 PM,22.1,16.7,80,30.27,10.0,East,9.2,-,N/A,,Overcast,100,2013-01-21 19:15:00
1:35 PM,22.1,16.3,79,30.27,10.0,East,9.2,-,N/A,,Overcast,90,2013-01-21 19:35:00
1:55 PM,21.9,16.0,78,30.26,10.0,East,8.1,-,N/A,,Overcast,100,2013-01-21 19:55:00
2:15 PM,22.1,16.2,78,30.25,10.0,East,9.2,-,N/A,,Overcast,90,2013-01-21 20:15:00
2:35 PM,21.7,15.8,78,30.25,10.0,East,9.2,-,N/A,,Overcast,90,2013-01-21 20:35:00
2:55 PM,21.6,15.6,78,30.24,10.0,East,10.4,-,N/A,,Overcast,100,2013-01-21 20:55:00
3:15 PM,21.2,15.4,78,30.24,10.0,East,10.4,-,N/A,,Overcast,90,2013-01-21 21:15:00
3:35 PM,21.0,15.3,78,30.24,10.0,East,11.5,-,N/A,,Overcast,100,2013-01-21 21:35:00
3:55 PM,20.8,14.9,78,30.23,10.0,East,9.2,-,N/A,,Overcast,100,2013-01-21 21:55:00
4:15 PM,20.8,15.3,79,30.22,10.0,East,12.7,-,N/A,,Overcast,90,2013-01-21 22:15:00
4:35 PM,20.3,14.7,79,30.23,10.0,East,9.2,-,N/A,,Overcast,90,2013-01-21 22:35:00
4:55 PM,20.3,14.9,80,30.22,10.0,East,8.1,-,N/A,,Overcast,90,2013-01-21 22:55:00
5:15 PM,20.3,14.7,79,30.22,10.0,East,10.4,-,N/A,,Overcast,90,2013-01-21 23:15:00
5:35 PM,20.3,14.4,78,30.24,10.0,East,6.9,-,N/A,,Overcast,80,2013-01-21 23:35:00
5:55 PM,20.1,14.2,78,30.22,10.0,East,9.2,-,N/A,,Overcast,90,2013-01-21 23:55:00
6:15 PM,20.1,14.2,78,30.21,10.0,ESE,9.2,-,N/A,,Overcast,110,2013-01-22 00:15:00
6:35 PM,19.8,13.8,78,30.21,10.0,ESE,9.2,-,N/A,,Overcast,110,2013-01-22 00:35:00
6:55 PM,19.8,13.6,77,30.21,10.0,East,9.2,-,N/A,,Overcast,90,2013-01-22 00:55:00
7:15 PM,19.4,13.3,77,30.22,10.0,ENE,6.9,-,N/A,,Overcast,70,2013-01-22 01:15:00
7:35 PM,19.4,13.1,76,30.23,10.0,East,8.1,-,N/A,,Overcast,90,2013-01-22 01:35:00
7:55 PM,19.4,13.1,76,30.22,10.0,East,10.4,-,N/A,,Overcast,100,2013-01-22 01:55:00
8:15 PM,19.4,13.1,76,30.23,10.0,ESE,9.2,-,N/A,,Overcast,110,2013-01-22 02:15:00
8:35 PM,19.4,13.5,78,30.22,10.0,ESE,8.1,-,N/A,,Overcast,120,2013-01-22 02:35:00
8:55 PM,19.4,13.1,76,30.23,10.0,SE,9.2,-,N/A,,Overcast,130,2013-01-22 02:55:00
9:15 PM,19.2,12.6,75,30.22,10.0,ESE,9.2,-,N/A,,Overcast,120,2013-01-22 03:15:00
9:35 PM,19.4,12.9,76,30.22,10.0,ESE,10.4,-,N/A,,Overcast,120,2013-01-22 03:35:00
9:55 PM,19.4,12.9,76,30.21,10.0,SE,10.4,-,N/A,,Overcast,130,2013-01-22 03:55:00
10:15 PM,19.2,13.1,77,30.20,10.0,SE,10.4,-,N/A,,Overcast,140,2013-01-22 04:15:00
10:35 PM,19.0,12.9,77,30.21,10.0,SE,10.4,-,N/A,,Overcast,130,2013-01-22 04:35:00
10:55 PM,18.5,12.6,78,30.22,10.0,SE,6.9,-,N/A,,Overcast,140,2013-01-22 04:55:00
11:15 PM,18.5,12.2,76,30.22,10.0,ESE,8.1,-,N/A,,Mostly Cloudy,120,2013-01-22 05:15:00
11:35 PM,18.3,12.7,79,30.23,10.0,SE,5.8,-,N/A,,Scattered Clouds,140,2013-01-22 05:35:00
11:55 PM,18.3,12.6,78,30.22,10.0,SE,6.9,-,N/A,,Scattered Clouds,130,2013-01-22 05:55:00